Location: �terpigny
(49.8910°N, 2.9249°E)
Time: 15:32:52
(UTC+00:00)

SL-8 R/B - Pass Details

Date: 24 October 2021
Orbit: 656 x 667 km, 48.4° (Epoch: 27 November)

Event Time Altitude Azimuth Distance (km) Brightness Sun altitude
Rises 19:28:00 0° 274° (W) 2,988 8.3 -27.6°
Reaches altitude 10° 19:30:20 10° 272° (W) 2,077 7.2 -28.0°
Enters shadow 19:34:00 50° 254° (WSW) 838 4.4 -28.6°
